When you browse on this site, cookies collect data to enhance your experience and personalize the content and advertising you see.
Visit our Privacy Policy to learn more. By continuing to use the site, you agree to this use of cookies and data.
  • en France
  • Liste des pays
  • À 7 jours
  • Température de l'eau
  • Carte météo
  • Widgets météo
  • user-avatar
    Se connecter

    Météo par heure à Wistka

    Ce jour, 26 Janvier, Dimanche

    Heure Température Précipitation Vent Pression Humidité
    00:00 -1°C° 0 mm 2 m/s 750 mmHg 74%
    01:00 -1°C° 0 mm 2 m/s 750 mmHg 73%
    02:00 -1°C° 0 mm 2 m/s 750 mmHg 73%
    03:00 -1°C° 0 mm 2 m/s 750 mmHg 73%
    04:00 -1°C° 0 mm 2 m/s 750 mmHg 73%
    05:00 +1°C° 0 mm 1 m/s 750 mmHg 72%
    06:00 +1°C° 0 mm 1 m/s 750 mmHg 71%
    07:00 +1°C° 0 mm 1 m/s 750 mmHg 70%
    08:00 -1°C° 0 mm 2 m/s 750 mmHg 67%
    09:00 +1°C° 0 mm 2 m/s 750 mmHg 64%
    10:00 +2°C° 0 mm 2 m/s 750 mmHg 61%
    11:00 +2°C° 0 mm 2 m/s 750 mmHg 60%
    12:00 +3°C° 0 mm 2 m/s 749 mmHg 59%
    13:00 +3°C° 0 mm 2 m/s 749 mmHg 57%
    14:00 +2°C° 0 mm 2 m/s 749 mmHg 61%
    15:00 +2°C° 0 mm 2 m/s 749 mmHg 64%
    16:00 +1°C° 0 mm 2 m/s 749 mmHg 67%
    17:00 +1°C° 0 mm 2 m/s 748 mmHg 68%
    18:00 +1°C° 0 mm 2 m/s 748 mmHg 70%
    19:00 -1°C° 0 mm 2 m/s 748 mmHg 71%
    20:00 -1°C° 0 mm 2 m/s 748 mmHg 72%
    21:00 -1°C° 0 mm 2 m/s 748 mmHg 73%
    22:00 -1°C° 0 mm 2 m/s 748 mmHg 74%
    23:00 -1°C° 0 mm 2 m/s 748 mmHg 75%

    Demain, 27 Janvier, Lundi

    Heure Température Précipitation Vent Pression Humidité
    00:00 -1°C° 0 mm 2 m/s 748 mmHg 76%
    01:00 -1°C° 0 mm 3 m/s 747 mmHg 78%
    02:00 -1°C° 0 mm 2 m/s 747 mmHg 79%
    03:00 -1°C° 0 mm 2 m/s 747 mmHg 80%
    04:00 -1°C° 0 mm 2 m/s 747 mmHg 82%
    05:00 -1°C° 0 mm 2 m/s 747 mmHg 83%
    06:00 -1°C° 0 mm 2 m/s 747 mmHg 84%
    07:00 -1°C° 0 mm 2 m/s 747 mmHg 84%
    08:00 +1°C° 0 mm 2 m/s 747 mmHg 81%
    09:00 +2°C° 0 mm 2 m/s 746 mmHg 77%
    10:00 +1°C° 0 mm 3 m/s 746 mmHg 73%
    11:00 +2°C° 0 mm 3 m/s 746 mmHg 71%
    12:00 +3°C° 0 mm 3 m/s 746 mmHg 69%
    13:00 +3°C° 0 mm 3 m/s 745 mmHg 66%
    14:00 +4°C° 0 mm 2 m/s 745 mmHg 71%
    15:00 +3°C° 0 mm 2 m/s 745 mmHg 75%
    16:00 +2°C° 0 mm 2 m/s 745 mmHg 79%
    17:00 +2°C° 0 mm 2 m/s 744 mmHg 81%
    18:00 +1°C° 0 mm 2 m/s 744 mmHg 84%
    19:00 +1°C° 0 mm 2 m/s 744 mmHg 86%
    20:00 0°C° 0 mm 3 m/s 744 mmHg 87%
    21:00 0°C° 0 mm 3 m/s 744 mmHg 88%
    22:00 0°C° 0 mm 3 m/s 743 mmHg 89%
    23:00 0°C° 0 mm 3 m/s 743 mmHg 89%

    Après-demain, 28 Janvier, Mardi

    Heure Température Précipitation Vent Pression Humidité
    00:00 0°C° 0 mm 3 m/s 742 mmHg 90%
    01:00 0°C° 0 mm 3 m/s 742 mmHg 90%
    02:00 0°C° 0 mm 3 m/s 741 mmHg 90%
    03:00 0°C° 0 mm 3 m/s 741 mmHg 90%
    04:00 0°C° 0 mm 3 m/s 740 mmHg 89%
    05:00 0°C° 0 mm 3 m/s 740 mmHg 88%
    06:00 0°C° 0 mm 3 m/s 739 mmHg 86%
    07:00 -1°C° 0 mm 4 m/s 738 mmHg 85%
    08:00 0°C° 0 mm 4 m/s 738 mmHg 81%
    09:00 +1°C° 0 mm 4 m/s 738 mmHg 77%
    10:00 +1°C° 0 mm 4 m/s 737 mmHg 73%
    11:00 +3°C° 0 mm 4 m/s 736 mmHg 72%
    12:00 +3°C° 0 mm 3 m/s 736 mmHg 72%
    13:00 +4°C° 0 mm 3 m/s 735 mmHg 71%
    14:00 +3°C° 0.1 mm 3 m/s 734 mmHg 76%
    15:00 +3°C° 0.1 mm 3 m/s 734 mmHg 80%
    16:00 +3°C° 0.1 mm 3 m/s 734 mmHg 85%
    17:00 +2°C° 0.4 mm 3 m/s 733 mmHg 88%
    18:00 +2°C° 0.4 mm 3 m/s 733 mmHg 92%
    19:00 +3°C° 0.4 mm 2 m/s 733 mmHg 95%
    20:00 +2°C° 0.2 mm 3 m/s 733 mmHg 96%
    21:00 +2°C° 0.2 mm 3 m/s 733 mmHg 96%
    22:00 +2°C° 0.2 mm 3 m/s 732 mmHg 96%
    23:00 +1°C° 0.2 mm 4 m/s 732 mmHg 96%

    29 Janvier, Mercredi

    Heure Température Précipitation Vent Pression Humidité
    00:00 +1°C° 0.2 mm 4 m/s 732 mmHg 96%
    01:00 +1°C° 0.2 mm 4 m/s 732 mmHg 95%
    02:00 0°C° 0.3 mm 5 m/s 732 mmHg 95%
    03:00 0°C° 0.3 mm 5 m/s 732 mmHg 94%
    04:00 -1°C° 0.3 mm 6 m/s 732 mmHg 94%
    05:00 0°C° 0.1 mm 5 m/s 732 mmHg 87%
    06:00 0°C° 0.1 mm 5 m/s 732 mmHg 80%
    07:00 0°C° 0.1 mm 5 m/s 732 mmHg 73%
    08:00 0°C° 0 mm 5 m/s 732 mmHg 72%
    09:00 0°C° 0 mm 5 m/s 733 mmHg 71%
    10:00 -1°C° 0 mm 6 m/s 733 mmHg 69%
    11:00 -1°C° 0 mm 6 m/s 733 mmHg 69%
    12:00 +1°C° 0 mm 6 m/s 733 mmHg 68%
    13:00 0°C° 0 mm 7 m/s 733 mmHg 67%
    14:00 +1°C° 0 mm 6 m/s 734 mmHg 68%
    15:00 +1°C° 0 mm 5 m/s 734 mmHg 69%
    16:00 +1°C° 0 mm 5 m/s 734 mmHg 70%
    17:00 0°C° 0 mm 5 m/s 734 mmHg 74%
    18:00 0°C° 0 mm 5 m/s 735 mmHg 78%
    19:00 -1°C° 0 mm 6 m/s 735 mmHg 82%
    20:00 -1°C° 0.2 mm 6 m/s 735 mmHg 86%
    21:00 -2°C° 0.2 mm 6 m/s 735 mmHg 91%
    22:00 -2°C° 0.2 mm 6 m/s 735 mmHg 96%
    23:00 -2°C° 0.9 mm 6 m/s 735 mmHg 95%

    30 Janvier, Jeudi

    Heure Température Précipitation Vent Pression Humidité
    00:00 -1°C° 0.9 mm 6 m/s 735 mmHg 94%
    01:00 -1°C° 0.9 mm 7 m/s 736 mmHg 92%
    02:00 -1°C° 0.1 mm 7 m/s 736 mmHg 93%
    03:00 -1°C° 0.1 mm 7 m/s 736 mmHg 93%
    04:00 -2°C° 0.1 mm 8 m/s 737 mmHg 93%
    05:00 -2°C° 0.1 mm 8 m/s 737 mmHg 93%
    06:00 -2°C° 0.1 mm 8 m/s 738 mmHg 92%
    07:00 -2°C° 0.1 mm 8 m/s 738 mmHg 92%
    08:00 -2°C° 0 mm 8 m/s 739 mmHg 89%
    09:00 -1°C° 0 mm 8 m/s 739 mmHg 86%
    10:00 -1°C° 0 mm 8 m/s 740 mmHg 83%
    11:00 -1°C° 0.1 mm 8 m/s 740 mmHg 83%
    12:00 -1°C° 0.1 mm 8 m/s 740 mmHg 83%
    13:00 0°C° 0.1 mm 7 m/s 741 mmHg 83%
    14:00 -1°C° 0.1 mm 7 m/s 741 mmHg 84%
    15:00 -1°C° 0.1 mm 7 m/s 741 mmHg 86%
    16:00 -1°C° 0.1 mm 7 m/s 742 mmHg 87%
    17:00 -1°C° 0 mm 6 m/s 742 mmHg 86%
    18:00 -1°C° 0 mm 6 m/s 743 mmHg 86%
    19:00 -1°C° 0 mm 6 m/s 743 mmHg 85%
    20:00 -1°C° 0 mm 6 m/s 743 mmHg 84%
    21:00 -1°C° 0 mm 6 m/s 744 mmHg 83%
    22:00 0°C° 0 mm 5 m/s 744 mmHg 82%
    23:00 -1°C° 0 mm 6 m/s 744 mmHg 85%

    31 Janvier, Vendredi

    Heure Température Précipitation Vent Pression Humidité
    00:00 -1°C° 0 mm 6 m/s 744 mmHg 88%
    01:00 -1°C° 0 mm 6 m/s 744 mmHg 90%
    02:00 -1°C° 0 mm 6 m/s 745 mmHg 91%
    03:00 -1°C° 0 mm 6 m/s 745 mmHg 92%
    04:00 0°C° 0 mm 5 m/s 745 mmHg 92%
    05:00 0°C° 0.1 mm 5 m/s 745 mmHg 93%
    06:00 0°C° 0.1 mm 5 m/s 745 mmHg 93%
    07:00 0°C° 0.1 mm 5 m/s 745 mmHg 94%
    08:00 0°C° 0 mm 5 m/s 745 mmHg 90%
    09:00 0°C° 0 mm 5 m/s 745 mmHg 87%
    10:00 0°C° 0 mm 5 m/s 746 mmHg 83%
    11:00 +1°C° 0 mm 5 m/s 745 mmHg 79%
    12:00 +1°C° 0 mm 5 m/s 745 mmHg 74%
    13:00 +2°C° 0 mm 5 m/s 745 mmHg 70%
    14:00 +3°C° 0 mm 4 m/s 745 mmHg 70%
    15:00 +3°C° 0 mm 3 m/s 745 mmHg 70%
    16:00 +3°C° 0 mm 2 m/s 745 mmHg 70%
    17:00 +3°C° 0 mm 2 m/s 745 mmHg 72%
    18:00 +2°C° 0 mm 2 m/s 746 mmHg 74%
    19:00 +2°C° 0 mm 2 m/s 746 mmHg 75%
    20:00 +2°C° 0 mm 2 m/s 746 mmHg 76%
    21:00 +1°C° 0 mm 2 m/s 746 mmHg 77%
    22:00 +1°C° 0 mm 2 m/s 746 mmHg 78%
    23:00 +1°C° 0 mm 2 m/s 746 mmHg 78%
    Voir plus